1486620000.31,54050,10.19,73680.8,-9.19,-10.45,-10.35,0,*52
1486620001.55,54051,10.19,73684.5,-9.21,-10.45,-10.45,0,*5F
1486620002.8,54052,10.19,73684.0,-9.21,-10.35,-10.35,0,*5C
1486620004.01,54053,10.19,73686.5,-9.19,-10.45,-10.45,0,*56
1486620005.23,54054,10.19,73682.8,-9.19,-10.49,-10.45,0,*5D
1486620006.45,54055,10.19,73684.3,-9.19,-10.49,-10.35,0,*5B
1486620007.69,54056,10.19,73684.5,-9.21,-10.45,-10.35,0,*5F
1486620008.93,54057,10.19,73684.3,-9.21,-10.45,-10.45,0,*59
1486620010.17,54058,10.19,73684.0,-9.21,-10.45,-10.45,0,*56
1486620011.42,54059,10.19,73684.3,-9.21,-10.35,-10.45,0,*50
1486620012.66,54060,10.19,73682.0,-9.21,-10.45,-10.35,0,*5A
1486620013.88,54061,10.19,73686.0,-9.19,-10.35,-10.23,0,*50
1486620015.12,54062,10.19,73686.8,-9.21,-10.45,-10.31,0,*5C
1486620016.37,54063,10.19,73684.3,-9.21,-10.45,-10.35,0,*59
1486620017.62,54064,10.19,73684.5,-9.21,-10.35,-10.35,0,*59
1486620018.86,54065,10.19,73684.5,-9.21,-10.45,-10.31,0,*5B
1486620020.1,54066,10.19,73684.8,-9.21,-10.45,-10.31,0,*58
1486620021.34,54067,10.19,73684.5,-9.21,-10.45,-10.31,0,*59
1486620022.55,54068,10.19,73686.5,-9.19,-10.45,-10.23,0,*5E
1486620023.77,54069,10.19,73686.5,-9.19,-10.45,-10.31,0,*5C
1486620024.99,54070,10.19,73686.8,-9.19,-10.45,-10.35,0,*50
1486620026.21,54071,10.19,73684.0,-9.19,-10.35,-10.45,0,*51
1486620027.43,54072,10.19,73686.0,-9.19,-10.45,-10.31,0,*56
1486620028.68,54073,10.19,73684.5,-9.21,-10.35,-10.35,0,*5F
1486620029.93,54074,10.19,73688.5,-9.21,-10.35,-10.31,0,*5C
1486620031.17,54075,10.19,73688.8,-9.21,-10.45,-10.31,0,*5A
1486620032.41,54076,10.19,73686.3,-9.21,-10.45,-10.31,0,*59
1486620033.63,54077,10.19,73688.3,-9.19,-10.45,-10.31,0,*53
1486620034.87,54078,10.19,73688.0,-9.21,-10.35,-10.45,0,*53
1486620036.12,54079,10.19,73684.8,-9.21,-10.45,-10.35,0,*52
1486620037.36,54080,10.19,73684.5,-9.21,-10.45,-10.35,0,*54
1486620038.61,54081,10.19,73684.8,-9.21,-10.35,-10.31,0,*56
1486620039.86,54082,10.19,73686.8,-9.21,-10.35,-10.31,0,*55
1486620041.1,54083,10.19,73686.8,-9.21,-10.35,-10.45,0,*57
1486620042.35,54084,10.19,73684.8,-9.21,-10.45,-10.35,0,*50
1486620043.57,54085,10.19,73684.3,-9.19,-10.35,-10.35,0,*5D
1486620044.82,54086,10.19,73684.0,-9.21,-10.35,-10.31,0,*51
1486620046.06,54087,10.19,73684.3,-9.21,-10.45,-10.23,0,*54
1486620047.3,54088,10.19,73684.5,-9.21,-10.35,-10.31,0,*5F
1486620048.55,54089,10.19,73686.3,-9.21,-10.31,-10.31,0,*5A
1486620049.77,54090,10.19,73684.0,-9.19,-10.45,-10.35,0,*5E
1486620050.99,54091,10.19,73686.3,-9.19,-10.35,-10.45,0,*5F
1486620052.24,54092,10.19,73686.5,-9.21,-10.35,-10.35,0,*50
1486620053.49,54093,10.19,73684.5,-9.21,-10.35,-10.35,0,*51
1486620054.73,54094,10.19,73684.3,-9.21,-10.45,-10.31,0,*55
1486620055.98,54095,10.19,73682.8,-9.21,-10.35,-10.31,0,*53
1486620057.2,54096,10.19,73684.8,-9.19,-10.35,-10.31,0,*5B
1486620058.42,54097,10.19,73686.3,-9.19,-10.45,-10.23,0,*5E
1486620059.64,54098,10.19,73686.3,-9.19,-10.35,-10.31,0,*55
1486620060.89,54099,10.19,73686.3,-9.21,-10.35,-10.31,0,*5F
1486620062.14,54100,10.19,73690.0,-9.21,-10.35,-10.35,0,*5A
1486620063.38,54101,10.19,73682.3,-9.21,-10.45,-10.35,0,*5C
1486620064.62,54102,10.19,73686.3,-9.21,-10.45,-10.45,0,*58
1486620065.87,54103,10.19,73684.0,-9.21,-10.49,-10.35,0,*52
1486620067.1,54104,10.19,73684.0,-9.21,-10.45,-10.45,0,*5E
1486620068.34,54105,10.19,73682.8,-9.21,-10.45,-10.45,0,*5F
1486620069.59,54106,10.19,73686.3,-9.21,-10.35,-10.35,0,*5C
1486620070.81,54107,10.19,73680.8,-9.19,-10.45,-10.35,0,*51
1486620072.03,54108,10.19,73684.3,-9.19,-10.45,-10.45,0,*59
1486620073.25,54109,10.19,73684.5,-9.19,-10.45,-10.45,0,*58
1486620074.49,54110,10.19,73684.8,-9.21,-10.45,-10.35,0,*5C
1486620075.71,54111,10.19,73686.3,-9.19,-10.45,-10.35,0,*56
1486620076.95,54112,10.19,73686.8,-9.21,-10.31,-10.23,0,*5A
1486620078.17,54113,10.19,73686.5,-9.19,-10.31,-10.31,0,*53
1486620079.42,54114,10.19,73684.8,-9.21,-10.35,-10.31,0,*5B
1486620080.64,54115,10.19,73688.0,-9.19,-10.35,-10.31,0,*51
1486620081.89,54116,10.19,73688.0,-9.21,-10.35,-10.23,0,*5A
1486620083.13,54117,10.19,73686.3,-9.21,-10.31,-10.23,0,*5F
1486620084.37,54118,10.19,73684.5,-9.21,-10.31,-10.31,0,*53
1486620085.62,54119,10.19,73684.3,-9.21,-10.35,-10.31,0,*56
1486620086.86,54120,10.19,73684.0,-9.21,-10.35,-10.31,0,*5C
1486620088.11,54121,10.19,73680.5,-9.21,-10.35,-10.31,0,*5D
1486620089.35,54122,10.19,73684.3,-9.21,-10.45,-10.31,0,*59
1486620090.59,54123,10.19,73682.3,-9.21,-10.45,-10.45,0,*5B
1486620091.84,54124,10.19,73680.5,-9.21,-10.45,-10.35,0,*5B
1486620093.06,54125,10.19,73684.8,-9.19,-10.35,-10.35,0,*56
1486620094.29,54126,10.19,73684.8,-9.19,-10.35,-10.31,0,*51
1486620095.51,54127,10.19,73684.3,-9.19,-10.45,-10.35,0,*53
1486620096.75,54128,10.19,73682.8,-9.21,-10.45,-10.35,0,*57
1486620097.98,54129,10.19,73684.3,-9.19,-10.35,-10.31,0,*5E
1486620099.2,54130,10.19,73682.0,-9.19,-10.35,-10.31,0,*56
1486620100.45,54131,10.19,73686.5,-9.21,-10.35,-10.35,0,*58
1486620101.67,54132,10.19,73682.8,-9.19,-10.45,-10.35,0,*57
1486620102.9,54133,10.19,73684.3,-9.19,-10.35,-10.35,0,*51
1486620104.14,54134,10.19,73684.3,-9.21,-10.45,-10.35,0,*5A
1486620105.39,54135,10.19,73686.0,-9.21,-10.45,-10.35,0,*5B
1486620106.62,54136,10.19,73682.5,-9.21,-10.45,-10.23,0,*5F
1486620107.87,54137,10.19,73682.3,-9.21,-10.35,-10.31,0,*5A
1486620109.09,54138,10.19,73682.3,-9.19,-10.45,-10.31,0,*59
1486620110.31,54139,10.19,73684.0,-9.19,-10.35,-10.31,0,*5F
1486620111.56,54140,10.19,73682.0,-9.21,-10.35,-10.23,0,*59
1486620112.77,54141,10.19,73680.8,-9.19,-10.45,-10.31,0,*57
1486620114.0,54142,10.19,73682.5,-9.19,-10.35,-10.31,0,*53
1486620115.22,54143,10.19,73684.3,-9.19,-10.45,-10.35,0,*51
1486620116.44,54144,10.19,73684.3,-9.19,-10.35,-10.31,0,*55
1486620117.66,54145,10.19,73684.8,-9.19,-10.35,-10.31,0,*54
1486620118.91,54146,10.19,73680.5,-9.21,-10.45,-10.35,0,*5F
1486620120.15,54147,10.19,73684.5,-9.21,-10.45,-10.35,0,*5E
1486620121.37,54148,10.19,73684.0,-9.19,-10.45,-10.31,0,*5E
1486620122.59,54149,10.19,73686.0,-9.19,-10.45,-10.31,0,*5F
1486620123.81,54150,10.19,73686.5,-9.19,-10.45,-10.35,0,*53
1486620125.03,54151,10.19,73684.3,-9.19,-10.49,-10.35,0,*5E
1486620126.25,54152,10.19,73684.5,-9.19,-10.57,-10.45,0,*55
1486620127.46,54153,10.19,73680.8,-9.19,-10.49,-10.45,0,*5B
1486620128.68,54154,10.19,73682.5,-9.19,-10.45,-10.45,0,*50
1486620129.92,54155,10.19,73686.0,-9.21,-10.45,-10.35,0,*5D
1486620131.17,54156,10.19,73684.5,-9.21,-10.45,-10.35,0,*5E
1486620132.39,54157,10.19,73684.5,-9.19,-10.45,-10.31,0,*50
1486620133.61,54158,10.19,73686.8,-9.19,-10.31,-10.31,0,*5C
1486620134.85,54159,10.19,73686.5,-9.21,-10.31,-10.23,0,*55
1486620136.07,54160,10.19,73686.8,-9.19,-10.35,-10.31,0,*53
1486620137.29,54161,10.19,73682.0,-9.19,-10.35,-10.31,0,*52
1486620138.51,54162,10.19,73686.0,-9.19,-10.35,-10.23,0,*52
1486620139.73,54163,10.19,73684.8,-9.19,-10.31,-10.23,0,*57
1486620140.97,54164,10.19,73686.3,-9.21,-10.45,-10.31,0,*5B
1486620142.22,54165,10.19,73686.8,-9.21,-10.31,-10.31,0,*59
1486620143.46,54166,10.19,73686.5,-9.21,-10.35,-10.31,0,*5E
1486620144.7,54167,10.19,73684.3,-9.21,-10.45,-10.45,0,*5B
1486620145.93,54168,10.19,73682.3,-9.19,-10.35,-10.35,0,*5F
1486620147.15,54169,10.19,73686.0,-9.19,-10.35,-10.31,0,*5A
1486620148.38,54170,10.19,73686.8,-9.19,-10.35,-10.31,0,*52
1486620149.62,54171,10.19,73686.3,-9.21,-10.31,-10.31,0,*5C
1486620150.87,54172,10.19,73686.5,-9.21,-10.35,-10.31,0,*5B
1486620152.09,54173,10.19,73682.0,-9.19,-10.35,-10.23,0,*52
1486620153.33,54174,10.19,73682.8,-9.21,-10.31,-10.31,0,*59
1486620154.55,54175,10.19,73684.3,-9.19,-10.35,-10.23,0,*54
1486620155.77,54176,10.19,73682.0,-9.19,-10.35,-10.31,0,*54
1486620157.0,54177,10.19,73686.0,-9.19,-10.35,-10.31,0,*55
1486620158.22,54178,10.19,73682.5,-9.19,-10.45,-10.31,0,*5D
1486620159.43,54179,10.19,73682.8,-9.19,-10.45,-10.31,0,*5C
1486620160.68,54180,10.19,73686.5,-9.21,-10.45,-10.35,0,*55
1486620161.9,54181,10.19,73684.5,-9.19,-10.45,-10.35,0,*5F
1486620163.12,54182,10.19,73686.5,-9.19,-10.35,-10.23,0,*5C
1486620164.34,54183,10.19,73680.5,-9.19,-10.35,-10.23,0,*5D
1486620165.56,54184,10.19,73684.0,-9.19,-10.35,-10.31,0,*59
1486620166.79,54185,10.19,73680.8,-9.19,-10.35,-10.31,0,*58
1486620168.01,54186,10.19,73684.0,-9.19,-10.35,-10.31,0,*5B
1486620169.24,54187,10.19,73684.8,-9.19,-10.35,-10.35,0,*5E
1486620170.45,54188,10.19,73684.0,-9.19,-10.45,-10.23,0,*51
1486620171.67,54189,10.19,73690.8,-9.19,-10.35,-10.31,0,*54
1486620172.9,54190,10.19,73684.0,-9.19,-10.35,-10.23,0,*5F
1486620174.12,54191,10.19,73684.3,-9.19,-10.31,-10.31,0,*59
1486620175.36,54192,10.19,73686.8,-9.21,-10.35,-10.23,0,*56
1486620176.58,54193,10.19,73684.5,-9.19,-10.31,-10.23,0,*58
1486620177.8,54194,10.19,73686.0,-9.19,-10.35,-10.23,0,*5B
1486620179.01,54195,10.19,73684.0,-9.19,-10.45,-10.31,0,*5E
1486620180.26,54196,10.19,73688.3,-9.17,-10.31,-10.19,0,*5A
1486620181.51,54197,10.19,73684.3,-9.17,-10.19,-10.19,0,*51
1486620182.73,54198,10.19,73684.3,-9.19,-10.31,-10.31,0,*50
1486620183.95,54199,10.19,73686.8,-9.19,-10.31,-10.31,0,*51
1486620185.2,54200,10.19,73684.3,-9.17,-10.27,-10.27,0,*5C
1486620186.47,54201,10.19,73686.8,-9.17,-10.41,-10.27,0,*5D
1486620187.7,54202,10.19,73686.5,-9.19,-10.35,-10.31,0,*54
1486620188.91,54203,10.19,73684.0,-9.19,-10.45,-10.31,0,*52
1486620190.14,54204,10.19,73684.5,-9.19,-10.35,-10.31,0,*52
1486620191.36,54205,10.19,73686.3,-9.19,-10.35,-10.23,0,*50
1486620192.63,54206,10.19,73686.3,-9.17,-10.41,-10.27,0,*5A
1486620193.88,54207,10.19,73686.8,-9.19,-10.41,-10.31,0,*52
1486620195.09,54208,10.19,73686.5,-9.19,-10.45,-10.31,0,*59
1486620196.31,54209,10.19,73688.3,-9.19,-10.45,-10.23,0,*5B
1486620197.52,54210,10.19,73688.3,-9.19,-10.45,-10.31,0,*50
1486620198.74,54211,10.19,73684.8,-9.19,-10.45,-10.45,0,*52
1486620199.96,54212,10.19,73688.3,-9.19,-10.49,-10.35,0,*5A
1486620201.18,54213,10.19,73688.0,-9.19,-10.49,-10.57,0,*5F
1486620202.39,54214,10.19,73686.3,-9.19,-10.49,-10.45,0,*5B
1486620203.61,54215,10.19,73686.3,-9.19,-10.49,-10.49,0,*56
1486620204.83,54216,10.19,73686.3,-9.19,-10.57,-10.45,0,*56
1486620206.05,54217,10.19,73686.8,-9.19,-10.35,-10.45,0,*53
1486620207.27,54218,10.19,73688.0,-9.19,-10.49,-10.35,0,*50
1486620208.51,54219,10.19,73684.0,-9.21,-10.57,-10.49,0,*5E
1486620209.73,54220,10.19,73686.8,-9.19,-10.49,-10.49,0,*50
1486620210.94,54221,10.19,73690.5,-9.19,-10.49,-10.45,0,*5D
1486620212.16,54222,10.19,73694.0,-9.19,-10.45,-10.35,0,*55
1486620213.39,54223,10.19,73688.5,-9.19,-10.35,-10.35,0,*53
1486620214.63,54224,10.19,73688.0,-9.21,-10.45,-10.45,0,*5F
1486620215.84,54225,10.19,73686.8,-9.19,-10.45,-10.45,0,*55
1486620217.06,54226,10.19,73686.3,-9.19,-10.45,-10.35,0,*51
1486620218.28,54227,10.19,73690.3,-9.19,-10.45,-10.45,0,*57
1486620219.5,54228,10.19,73690.5,-9.19,-10.45,-10.35,0,*5F
1486620220.72,54229,10.19,73688.0,-9.19,-10.35,-10.31,0,*5D
1486620221.95,54230,10.19,73684.5,-9.19,-10.35,-10.35,0,*51
1486620223.17,54231,10.19,73684.8,-9.19,-10.45,-10.45,0,*50
1486620224.41,54232,10.19,73690.5,-9.21,-10.45,-10.31,0,*5B
1486620225.63,54233,10.19,73688.0,-9.19,-10.45,-10.35,0,*55
1486620226.85,54234,10.19,73690.0,-9.19,-10.45,-10.35,0,*52
1486620228.06,54235,10.19,73688.8,-9.19,-10.49,-10.45,0,*58
1486620229.28,54236,10.19,73686.5,-9.19,-10.49,-10.35,0,*5C
1486620230.51,54237,10.19,73690.0,-9.19,-10.49,-10.35,0,*5D
1486620231.73,54238,10.19,73688.3,-9.19,-10.57,-10.35,0,*5D
1486620232.95,54239,10.19,73690.3,-9.19,-10.45,-10.35,0,*5F
1486620234.17,54240,10.19,73688.8,-9.19,-10.49,-10.45,0,*5A
1486620235.41,54241,10.19,73692.8,-9.17,-10.45,-10.31,0,*5A
1486620236.62,54242,10.19,73690.8,-9.19,-10.49,-10.45,0,*58
1486620237.87,54243,10.19,73690.3,-9.19,-10.63,-10.45,0,*51
1486620239.09,54244,10.19,73692.8,-9.19,-10.57,-10.49,0,*5D
1486620240.33,54245,10.19,73696.3,-9.21,-10.49,-10.45,0,*54
1486620241.57,54246,10.19,73692.0,-9.19,-10.63,-10.57,0,*57
1486620242.82,54247,10.19,73688.0,-9.19,-10.63,-10.57,0,*56
1486620244.06,54248,10.19,73688.3,-9.17,-10.57,-10.57,0,*50
1486620245.3,54249,10.19,73688.0,-9.19,-10.71,-10.49,0,*54
1486620246.55,54250,10.19,73688.3,-9.19,-10.63,-10.57,0,*50
1486620247.8,54251,10.19,73690.8,-9.19,-10.63,-10.57,0,*51
1486620249.07,54252,10.19,73688.8,-9.19,-10.63,-10.63,0,*55
1486620250.34,54253,10.19,73688.8,-9.19,-10.71,-10.63,0,*57
1486620251.61,54254,10.19,73690.8,-9.19,-10.71,-10.71,0,*53
1486620252.88,54255,10.19,73686.8,-9.19,-10.63,-10.63,0,*52
1486620254.15,54256,10.19,73690.3,-9.19,-10.71,-10.63,0,*52
1486620255.4,54257,10.19,73692.3,-9.19,-10.63,-10.57,0,*57
1486620256.67,54258,10.19,73688.5,-9.21,-10.63,-10.57,0,*53
1486620257.91,54259,10.19,73688.8,-9.19,-10.63,-10.49,0,*56
1486620259.13,54260,10.19,73688.5,-9.19,-10.57,-10.49,0,*5B
1486620260.35,54261,10.19,73692.5,-9.19,-10.49,-10.45,0,*59
1486620261.56,54262,10.19,73692.3,-9.19,-10.49,-10.57,0,*59
1486620262.8,54263,10.19,73690.5,-9.21,-10.49,-10.49,0,*5C
1486620264.05,54264,10.19,73690.3,-9.21,-10.49,-10.35,0,*50
1486620265.27,54265,10.19,73688.3,-9.19,-10.45,-10.35,0,*56
1486620266.51,54266,10.19,73690.0,-9.21,-10.49,-10.45,0,*55
1486620267.75,54267,10.19,73690.5,-9.21,-10.49,-10.49,0,*58
1486620268.96,54268,10.19,73684.3,-9.19,-10.57,-10.45,0,*5F
1486620270.21,54269,10.19,73686.5,-9.21,-10.49,-10.35,0,*5D
1486620271.43,54270,10.19,73684.5,-9.19,-10.49,-10.35,0,*5E
1486620272.67,54271,10.19,73688.5,-9.21,-10.49,-10.45,0,*53
1486620273.9,54272,10.19,73688.3,-9.19,-10.35,-10.35,0,*57
1486620275.14,54273,10.19,73688.8,-9.21,-10.49,-10.35,0,*56
1486620276.37,54274,10.19,73690.3,-9.19,-10.35,-10.35,0,*51
1486620277.6,54275,10.19,73688.5,-9.19,-10.35,-10.35,0,*50
1486620278.81,54276,10.19,73684.8,-9.19,-10.45,-10.45,0,*53
1486620280.02,54277,10.19,73684.0,-9.19,-10.49,-10.45,0,*5E
1486620281.24,54278,10.19,73684.0,-9.19,-10.49,-10.45,0,*51
1486620282.46,54279,10.19,73686.5,-9.19,-10.49,-10.35,0,*57
1486620283.68,54280,10.19,73684.5,-9.19,-10.49,-10.45,0,*56
1486620284.92,54281,10.19,73684.0,-9.21,-10.57,-10.45,0,*53
1486620286.13,54282,10.19,73684.8,-9.19,-10.49,-10.45,0,*54
1486620287.35,54283,10.19,73684.5,-9.19,-10.49,-10.45,0,*55
1486620288.59,54284,10.19,73686.3,-9.21,-10.57,-10.45,0,*56
1486620289.81,54285,10.19,73686.0,-9.19,-10.49,-10.35,0,*54
1486620291.03,54286,10.19,73682.5,-9.19,-10.45,-10.45,0,*5C
1486620292.24,54287,10.19,73686.8,-9.19,-10.45,-10.45,0,*5D
1486620293.49,54288,10.19,73684.3,-9.21,-10.49,-10.35,0,*52
1486620294.73,54289,10.19,73690.3,-9.21,-10.49,-10.45,0,*54
1486620295.95,54290,10.19,73684.5,-9.19,-10.49,-10.35,0,*50
1486620297.16,54291,10.19,73686.5,-9.19,-10.45,-10.45,0,*5A
1486620298.38,54292,10.19,73686.5,-9.19,-10.45,-10.45,0,*59
1486620299.59,54293,10.19,73684.3,-9.19,-10.57,-10.45,0,*5B
1486620300.84,54294,10.19,73686.0,-9.21,-10.49,-10.35,0,*5F
1486620302.06,54295,10.19,73688.0,-9.19,-10.45,-10.35,0,*59
1486620303.28,54296,10.19,73684.5,-9.19,-10.45,-10.45,0,*5D
1486620304.5,54297,10.19,73690.3,-9.19,-10.35,-10.35,0,*5C
1486620305.75,54298,10.19,73686.5,-9.21,-10.45,-10.35,0,*5F
1486620306.96,54299,10.19,73688.8,-9.19,-10.45,-10.45,0,*52
1486620308.18,54300,10.19,73684.0,-9.19,-10.45,-10.35,0,*54
1486620309.4,54301,10.19,73688.3,-9.19,-10.45,-10.35,0,*55
1486620310.62,54302,10.19,73686.0,-9.19,-10.45,-10.35,0,*56
1486620311.87,54303,10.19,73686.8,-9.21,-10.45,-10.35,0,*5C
1486620313.11,54304,10.19,73686.3,-9.21,-10.45,-10.35,0,*5B
1486620314.33,54305,10.19,73688.0,-9.19,-10.49,-10.45,0,*5A
1486620315.57,54306,10.19,73686.0,-9.21,-10.49,-10.35,0,*55
1486620316.79,54307,10.19,73684.5,-9.19,-10.49,-10.45,0,*58
1486620318.0,54308,10.19,73682.5,-9.19,-10.49,-10.45,0,*57
1486620319.23,54309,10.19,73686.5,-9.19,-10.49,-10.35,0,*51
1486620320.44,54310,10.19,73684.5,-9.19,-10.49,-10.45,0,*5E
1486620321.66,54311,10.19,73684.5,-9.19,-10.45,-10.35,0,*54
1486620322.91,54312,10.19,73682.8,-9.21,-10.45,-10.35,0,*5C
1486620324.16,54313,10.19,73686.8,-9.21,-10.35,-10.35,0,*5A
1486620325.37,54314,10.19,73682.0,-9.19,-10.45,-10.23,0,*56
1486620326.61,54315,10.19,73684.3,-9.21,-10.35,-10.23,0,*5B
1486620327.83,54316,10.19,73684.8,-9.19,-10.31,-10.31,0,*54
1486620329.05,54317,10.19,73680.8,-9.19,-10.31,-10.23,0,*56
1486620330.29,54318,10.19,73684.0,-9.21,-10.35,-10.23,0,*56
1486620331.53,54319,10.19,73684.0,-9.21,-10.31,-10.23,0,*53
1486620332.76,54320,10.19,73686.0,-9.19,-10.35,-10.31,0,*55
1486620334.0,54321,10.19,73684.8,-9.21,-10.45,-10.45,0,*5B
1486620335.24,54322,10.19,73686.0,-9.21,-10.49,-10.45,0,*54
1486620336.46,54323,10.19,73686.3,-9.19,-10.35,-10.45,0,*55
1486620337.7,54324,10.19,73690.0,-9.21,-10.45,-10.35,0,*59
1486620338.95,54325,10.19,73686.8,-9.21,-10.35,-10.35,0,*5F
1486620340.2,54326,10.19,73686.5,-9.21,-10.45,-10.35,0,*5B
1486620341.42,54327,10.19,73684.3,-9.19,-10.35,-10.31,0,*52
1486620342.64,54328,10.19,73690.5,-9.19,-10.35,-10.31,0,*5D
1486620343.87,54329,10.19,73690.0,-9.19,-10.35,-10.31,0,*5C
1486620345.09,54330,10.19,73690.3,-9.19,-10.31,-10.31,0,*50
1486620346.31,54331,10.19,73686.5,-9.19,-10.31,-10.31,0,*51
1486620347.52,54332,10.19,73690.0,-9.19,-10.31,-10.23,0,*51
1486620348.76,54333,10.19,73688.5,-9.21,-10.31,-10.23,0,*5B
1486620349.98,54334,10.19,73688.5,-9.19,-10.31,-10.23,0,*57
1486620351.2,54335,10.19,73690.5,-9.19,-10.31,-10.09,0,*5E
1486620352.44,54336,10.19,73690.3,-9.21,-10.23,-10.23,0,*5D
1486620353.65,54337,10.19,73690.5,-9.19,-10.31,-10.23,0,*54
1486620354.89,54338,10.19,73686.8,-9.21,-10.23,-10.23,0,*53
1486620356.11,54339,10.19,73688.0,-9.19,-10.23,-10.23,0,*59
1486620357.33,54340,10.19,73688.0,-9.19,-10.31,-10.19,0,*5D
1486620358.58,54341,10.19,73686.8,-9.21,-10.31,-10.19,0,*57
1486620359.82,54342,10.19,73690.0,-9.21,-10.31,-10.31,0,*5E
1486620361.05,54343,10.19,73684.8,-9.19,-10.35,-10.31,0,*50
1486620362.26,54344,10.19,73690.8,-9.19,-10.31,-10.23,0,*50
1486620363.48,54345,10.19,73690.3,-9.19,-10.31,-10.23,0,*51
1486620364.7,54346,10.19,73690.3,-9.19,-10.31,-10.19,0,*5B
1486620365.92,54347,10.19,73688.5,-9.19,-10.31,-10.23,0,*53
1486620367.16,54348,10.19,73690.8,-9.21,-10.23,-10.23,0,*54
1486620368.37,54349,10.19,73692.0,-9.19,-10.31,-10.23,0,*5D
1486620369.59,54350,10.19,73690.0,-9.19,-10.23,-10.23,0,*56
1486620370.81,54351,10.19,73684.8,-9.19,-10.23,-10.23,0,*57
1486620372.02,54352,10.19,73686.5,-9.19,-10.31,-10.23,0,*57
1486620373.27,54353,10.19,73686.5,-9.17,-10.27,-10.19,0,*56
1486620374.49,54354,10.19,73686.3,-9.19,-10.31,-10.23,0,*51
1486620375.7,54355,10.19,73690.5,-9.19,-10.23,-10.23,0,*53
1486620376.92,54356,10.19,73688.8,-9.19,-10.23,-10.23,0,*50
1486620378.14,54357,10.19,73690.8,-9.19,-10.31,-10.31,0,*51
1486620379.35,54358,10.19,73690.5,-9.19,-10.23,-10.23,0,*5E
1486620380.6,54359,10.19,73686.8,-9.17,-10.27,-10.19,0,*5C
1486620381.82,54360,10.19,73690.8,-9.19,-10.31,-10.23,0,*56
1486620383.03,54361,10.19,73690.0,-9.19,-10.31,-10.23,0,*57
1486620384.25,54362,10.19,73690.0,-9.19,-10.31,-10.23,0,*54
1486620385.47,54363,10.19,73688.3,-9.19,-10.31,-10.23,0,*55
1486620386.68,54364,10.19,73690.5,-9.19,-10.31,-10.23,0,*52
1486620387.9,54365,10.19,73688.8,-9.19,-10.23,-10.23,0,*50
1486620389.12,54366,10.19,73684.3,-9.19,-10.31,-10.23,0,*50
1486620390.33,54367,10.19,73688.3,-9.19,-10.31,-10.23,0,*51
1486620391.58,54368,10.19,73690.8,-9.17,-10.19,-10.19,0,*53
1486620392.83,54369,10.19,73690.5,-9.17,-10.19,-10.15,0,*5E
1486620394.08,54370,10.19,73688.5,-9.15,-10.19,-10.19,0,*58
1486620395.33,54371,10.19,73688.5,-9.17,-10.27,-10.19,0,*56
1486620396.55,54372,10.19,73692.5,-9.19,-10.35,-10.31,0,*52
1486620397.78,54373,10.19,73688.8,-9.19,-10.35,-10.31,0,*53
1486620399.02,54374,10.19,73692.0,-9.17,-10.31,-10.19,0,*54
1486620400.27,54375,10.19,73694.0,-9.17,-10.31,-10.27,0,*58
1486620401.52,54376,10.19,73690.5,-9.17,-10.31,-10.27,0,*5B
1486620402.76,54377,10.19,73688.8,-9.17,-10.27,-10.19,0,*50
1486620403.98,54378,10.19,73694.3,-9.19,-10.45,-10.23,0,*5C
1486620405.23,54379,10.19,73690.5,-9.17,-10.31,-10.27,0,*54
1486620406.45,54380,10.19,73688.0,-9.19,-10.35,-10.31,0,*5F
1486620407.67,54381,10.19,73688.0,-9.19,-10.35,-10.23,0,*5D
1486620408.92,54382,10.19,73688.0,-9.17,-10.31,-10.27,0,*50
1486620410.16,54383,10.19,73690.0,-9.17,-10.27,-10.27,0,*56
1486620411.41,54384,10.19,73688.8,-9.17,-10.27,-10.27,0,*51
1486620412.63,54385,10.19,73694.5,-9.19,-10.31,-10.31,0,*5E
1486620413.87,54386,10.19,73690.5,-9.17,-10.27,-10.27,0,*53
1486620415.12,54387,10.19,73688.0,-9.17,-10.27,-10.27,0,*52
1486620416.37,54388,10.19,73692.5,-9.17,-10.31,-10.27,0,*5A
1486620417.59,54389,10.19,73690.3,-9.19,-10.35,-10.31,0,*56
1486620418.87,54390,10.19,73692.0,-9.17,-10.41,-10.27,0,*54
1486620420.11,54391,10.19,73692.8,-9.17,-10.31,-10.27,0,*52
1486620421.36,54392,10.19,73692.0,-9.17,-10.31,-10.31,0,*56
1486620422.63,54393,10.19,73694.0,-9.17,-10.41,-10.31,0,*50
1486620423.9,54394,10.19,73690.5,-9.17,-10.31,-10.41,0,*57
1486620425.14,54395,10.19,73692.0,-9.17,-10.31,-10.31,0,*51
1486620426.38,54396,10.19,73688.5,-9.17,-10.45,-10.31,0,*51
1486620427.66,54397,10.19,73690.3,-9.17,-10.41,-10.19,0,*5E
1486620428.88,54398,10.19,73692.0,-9.19,-10.45,-10.31,0,*51
1486620430.12,54399,10.19,73690.3,-9.17,-10.27,-10.27,0,*5D
1486620431.4,54400,10.19,73688.8,-9.17,-10.41,-10.27,0,*5A
1486620432.67,54401,10.19,73694.0,-9.17,-10.41,-10.31,0,*5C
1486620433.91,54402,10.19,73694.3,-9.17,-10.31,-10.31,0,*58
1486620435.14,54403,10.19,73690.5,-9.19,-10.35,-10.35,0,*57
1486620436.38,54404,10.19,73692.3,-9.15,-10.27,-10.19,0,*51
1486620437.63,54405,10.19,73694.5,-9.17,-10.31,-10.31,0,*5F
1486620438.87,54406,10.19,73690.5,-9.15,-10.31,-10.27,0,*59
1486620440.14,54407,10.19,73694.8,-9.17,-10.41,-10.31,0,*5A
1486620441.39,54408,10.19,73694.3,-9.17,-10.31,-10.31,0,*52
1486620442.66,54409,10.19,73694.0,-9.17,-10.41,-10.31,0,*54
1486620443.96,54410,10.19,73694.3,-9.17,-10.41,-10.41,0,*5B
1486620445.18,54411,10.19,73692.8,-9.19,-10.35,-10.35,0,*54
1486620446.45,54412,10.19,73692.5,-9.17,-10.41,-10.31,0,*5E
1486620447.7,54413,10.19,73692.3,-9.17,-10.45,-10.31,0,*5B
1486620448.94,54414,10.19,73694.5,-9.17,-10.45,-10.31,0,*5C
1486620450.21,54415,10.19,73692.3,-9.17,-10.41,-10.31,0,*59
1486620451.48,54416,10.19,73694.5,-9.15,-10.41,-10.27,0,*5F
1486620452.73,54417,10.19,73692.5,-9.17,-10.31,-10.27,0,*5B
1486620453.95,54418,10.19,73692.0,-9.19,-10.35,-10.35,0,*5D
1486620455.17,54419,10.19,73692.3,-9.19,-10.45,-10.35,0,*5B
1486620456.42,54420,10.19,73690.3,-9.17,-10.27,-10.19,0,*55
1486620457.69,54421,10.19,73696.3,-9.17,-10.41,-10.31,0,*5E
1486620458.94,54422,10.19,73694.8,-9.17,-10.31,-10.31,0,*5A
1486620460.21,54423,10.19,73688.5,-9.17,-10.41,-10.31,0,*5C
1486620461.48,54424,10.19,73690.0,-9.17,-10.41,-10.31,0,*5B
1486620462.72,54425,10.19,73692.0,-9.17,-10.31,-10.31,0,*5D
1486620463.97,54426,10.19,73694.3,-9.17,-10.31,-10.27,0,*59
1486620465.24,54427,10.19,73690.5,-9.17,-10.41,-10.27,0,*5F
1486620466.49,54428,10.19,73692.3,-9.17,-10.31,-10.31,0,*50
1486620467.73,54429,10.19,73694.8,-9.17,-10.31,-10.31,0,*51
1486620468.95,54430,10.19,73694.8,-9.19,-10.35,-10.31,0,*53
1486620470.2,54431,10.19,73688.3,-9.17,-10.31,-10.27,0,*5F
1486620471.45,54432,10.19,73694.5,-9.17,-10.31,-10.27,0,*5C
1486620472.69,54433,10.19,73692.3,-9.17,-10.27,-10.27,0,*5A
1486620473.94,54434,10.19,73688.5,-9.17,-10.31,-10.27,0,*5A
1486620475.19,54435,10.19,73690.8,-9.17,-10.31,-10.27,0,*5B
1486620476.44,54436,10.19,73692.5,-9.17,-10.27,-10.27,0,*5F
1486620477.68,54437,10.19,73694.8,-9.17,-10.19,-10.27,0,*53
1486620478.93,54438,10.19,73694.3,-9.17,-10.27,-10.19,0,*5C
1486620480.18,54439,10.19,73690.5,-9.17,-10.31,-10.27,0,*57
1486620481.45,54440,10.19,73694.5,-9.17,-10.41,-10.27,0,*5E
1486620482.72,54441,10.19,73692.3,-9.15,-10.41,-10.27,0,*5D
1486620484.0,54442,10.19,73694.3,-9.17,-10.41,-10.27,0,*5C
1486620485.24,54443,10.19,73694.3,-9.17,-10.27,-10.19,0,*50
1486620486.49,54444,10.19,73696.5,-9.17,-10.27,-10.19,0,*57
1486620487.74,54445,10.19,73692.5,-9.17,-10.31,-10.19,0,*51
1486620488.98,54446,10.19,73690.3,-9.17,-10.27,-10.19,0,*55
1486620490.23,54447,10.19,73694.3,-9.17,-10.31,-10.27,0,*5E
1486620491.5,54448,10.19,73696.5,-9.17,-10.41,-10.31,0,*51
1486620492.75,54449,10.19,73692.0,-9.17,-10.31,-10.27,0,*50